User: anonymous   Login
Location: Clinton NY
(43.0598°N, 75.3602°W)
Time: 08:09:15
(UTC-04:00)
Language:

ISS - Orbit

View from above orbital plane
View from above orbital plane
View from above satellite
View from above satellite

Ground track
Ground track

The orbit data is extracted from the following two-line orbital elements,

1 25544U 98067A   16182.25173611  .00003195  00000-0  54348-4 0  9990
2 25544  51.6453 352.8555 0000797  30.0134 321.5990 15.54710249  7018
Epoch (UTC): 30 June 2016 06:02:30
Eccentricity: 0.0000797
inclination: 51.6453°
perigee height: 402 km
apogee height: 403 km
right ascension of ascending node: 352.8555°
argument of perigee: 30.0134°
revolutions per day: 15.54710249
mean anomaly at epoch: 321.5990°
orbit number at epoch: 701

The dashed part of the orbit path shows where the satellite is in the earth's shadow,  

DLR